Location: Courcelles
(49.2596°N, 1.7419°E)
Time: 06:04:39
(UTC+00:00)

Cosmos 1400 Rocket - Pass Details

Date: 17 November 2025
Orbit: 477 x 514 km, 81.1° (Epoch: 06 December)

Event Time Altitude Azimuth Distance (km) Brightness Sun altitude
Rises 17:24:59 0° 157° (SSE) 2,619 6.2 -12.3°
Reaches altitude 10° 17:27:28 10° 141° (SE) 1,735 5.1 -12.7°
Maximum altitude 17:30:23 21° 91° (E) 1,176 3.9 -13.2°
Enters shadow 17:30:30 21° 88° (E) 1,177 3.9 -13.2°
